Location: UMBC
(39.2555°N, 76.7093°W)
Time: 19:11:55
(UTC+02:00)

Amateur Radio Satellites - All Passes

Search period start: 03 September 2015 18:41
Search period end: 04 September 2015 18:41
Location: UMBC, 39.2555°N, 76.7093°W

Satellite Date Start Highest point End Downlink Frequencies (MHz)
Time Altitude Azimuth
PCSat 03 Sep 18:53:06 18:55:01 11° 256° (WSW) 18:56:34 145.827
Oscar 19 03 Sep 18:54:22 18:58:41 28° 68° (ENE) 19:03:06 437.125/150
CUBEBUG 1 03 Sep 18:55:33 18:59:56 64° 286° (WNW) 19:04:19 437.445
50 SAT 03 Sep 19:00:48 19:03:54 23° 290° (WNW) 19:06:53 437.505
BUGSAT 1 03 Sep 19:01:05 19:03:39 16° 269° (W) 19:06:05 437.445
ESTCUBE 1 03 Sep 19:01:14 19:05:33 46° 287° (WNW) 19:09:51 437.505/2401.250
AISAT 03 Sep 19:04:14 19:08:14 32° 290° (WNW) 19:12:10 437.250
DANDE 03 Sep 19:21:36 19:27:08 20° 274° (W) 19:32:26 436.750
VELOX 1 03 Sep 19:32:24 19:35:26 18° 293° (WNW) 19:38:20 145.980
TISAT 1 03 Sep 19:32:35 19:36:47 54° 100° (E) 19:40:58 437.305
ISS 03 Sep 19:47:39 19:50:16 22° 25° (NNE) 19:52:55 145.825
Gurwin Techsat 1B 03 Sep 19:57:57 20:02:41 35° 70° (ENE) 20:07:31 435.225
JAS-2 03 Sep 19:58:14 20:04:19 27° 63° (ENE) 20:10:39 435.910
ITAMSAT 1 03 Sep 19:59:29 20:03:52 29° 68° (ENE) 20:08:20 435.822/435.867
BEESAT 03 Sep 20:06:14 20:09:42 21° 93° (E) 20:13:18 436.000
AO-7 03 Sep 20:14:36 20:19:42 19° 53° (NE) 20:25:10 29.400- 29.500
SPROUT 03 Sep 20:16:20 20:20:01 27° 290° (WNW) 20:23:37 437.525
BEESAT 3 03 Sep 20:23:29 20:27:23 50° 117° (ESE) 20:31:21 437.485
RS-15 03 Sep 20:27:11 20:34:15 21° 102° (ESE) 20:42:07 29.354- 29.394
SWISSCUBE 03 Sep 20:31:53 20:36:22 41° 98° (E) 20:40:53 437.505
Oscar 19 03 Sep 20:33:16 20:37:56 34° 264° (W) 20:42:36 437.125/150
GONETS M04 03 Sep 20:33:52 20:42:43 83° 264° (W) 20:51:33
BEESAT 2 03 Sep 20:39:52 20:43:52 56° 118° (ESE) 20:47:54 435.950
JUGNU 03 Sep 20:41:29 20:42:26 10° 184° (S) 20:43:20 437.505
TISAT 1 03 Sep 21:10:02 21:12:07 13° 295° (WNW) 21:14:01 437.305
ITUPSAT 1 03 Sep 21:11:42 21:16:29 84° 286° (WNW) 21:21:16 437.325
Cosmos 2499 03 Sep 21:20:10 21:28:35 56° 77° (ENE) 21:36:26 435.465 / 435.565
ISS 03 Sep 21:23:42 21:26:52 48° 222° (SW) 21:29:59 145.825
AIST 2 03 Sep 21:36:23 21:40:23 43° 116° (ESE) 21:44:27 435.215
Gurwin Techsat 1B 03 Sep 21:38:12 21:42:44 28° 266° (W) 21:47:13 435.225
ITAMSAT 1 03 Sep 21:38:42 21:43:19 32° 264° (W) 21:47:54 435.822/435.867
STARS 03 Sep 21:40:50 21:43:53 19° 92° (E) 21:47:04 437.465
JAS-2 03 Sep 21:41:05 21:48:46 68° 259° (W) 21:56:37 435.910
BEESAT 03 Sep 21:43:18 21:47:43 39° 289° (WNW) 21:52:06 436.000
SRMSAT 03 Sep 21:56:36 21:57:55 11° 181° (S) 21:59:14 437.500
BEESAT 3 03 Sep 22:02:53 22:05:37 17° 315° (NW) 22:08:15 437.485
AO-7 03 Sep 22:03:06 22:11:27 83° 71° (ENE) 22:19:50 29.400- 29.500
KKS-1 03 Sep 22:05:59 22:10:27 61° 101° (E) 22:14:52 437.445
SWISSCUBE 03 Sep 22:10:28 22:13:59 20° 293° (WNW) 22:17:20 437.505
HORYU 2 03 Sep 22:14:45 22:19:14 80° 76° (ENE) 22:23:46 437.375
BEESAT 2 03 Sep 22:19:42 22:22:17 16° 316° (NW) 22:24:45 435.950
GONETS M04 03 Sep 22:33:42 22:38:23 15° 281° (WNW) 22:42:26
RS-15 03 Sep 22:34:21 22:45:18 88° 305° (NW) 22:56:43 29.354- 29.394
MOZHAYETS 4 03 Sep 22:40:35 22:43:59 21° 93° (E) 22:47:28
Cosmos 2499 03 Sep 23:14:10 23:21:16 29° 276° (W) 23:27:44 435.465 / 435.565
AIST 2 03 Sep 23:15:59 23:19:10 20° 314° (NW) 23:22:17 435.215
STARS 03 Sep 23:16:21 23:20:30 38° 288° (WNW) 23:24:34 437.465
JAS-2 03 Sep 23:32:48 23:35:20 11° 279° (W) 23:37:09 435.910
Cubesat XI-IV 03 Sep 23:41:01 23:45:20 27° 67° (ENE) 23:49:46 437.490
KKS-1 03 Sep 23:44:28 23:46:36 13° 296° (WNW) 23:48:31 437.445
AO-7 03 Sep 23:59:28 00:05:17 19° 270° (W) 00:10:40 29.400- 29.500
MOZHAYETS 4 04 Sep 00:17:09 00:21:18 35° 289° (WNW) 00:25:25
AIST 1 04 Sep 00:19:18 00:21:44 15° 70° (ENE) 00:24:21
CUTE-I 04 Sep 00:23:56 00:29:11 65° 74° (ENE) 00:34:28 437.470
CUBESAT XI-V 04 Sep 00:42:12 00:46:28 36° 96° (E) 00:50:46 437.345
Cosmos 2491 04 Sep 00:49:30 00:55:22 20° 63° (ENE) 01:01:41 435.465 / 435.565
RS-15 04 Sep 00:50:06 00:59:35 30° 328° (NNW) 01:09:12 29.354- 29.394
O/OREOS (USA 219) 04 Sep 00:56:52 01:01:24 89° 112° (ESE) 01:06:00 437.305
Cubesat XI-IV 04 Sep 01:20:21 01:25:18 37° 263° (W) 01:30:12 437.490
PRISM 04 Sep 01:25:02 01:27:11 14° 91° (E) 01:29:31 437.425
CANX-2 04 Sep 01:38:47 01:40:45 13° 66° (ENE) 01:42:56 2200.000
BRITE-PL 04 Sep 01:40:20 01:44:40 57° 74° (ENE) 01:49:22 437.365/2234.400
HO-68 04 Sep 01:46:10 01:52:19 33° 64° (ENE) 01:58:37 435.675
STRAND 1 04 Sep 01:46:50 01:51:39 41° 98° (E) 01:56:30 437.568
DOVE 4 04 Sep 01:51:46 01:55:40 27° 68° (ENE) 01:59:51 437.250
GOMX 1 04 Sep 01:53:08 01:57:28 45° 72° (ENE) 02:02:10 467.674
SEEDS 04 Sep 01:54:21 01:56:28 14° 67° (ENE) 01:58:47 437.485
AIST 1 04 Sep 01:55:33 01:59:40 43° 267° (W) 02:03:47
CUTE-I 04 Sep 02:06:51 02:09:49 14° 271° (W) 02:12:32 437.470
COMPASS 1 04 Sep 02:10:26 02:12:59 16° 68° (ENE) 02:15:40 437.405
CINEMA 3 04 Sep 02:14:33 02:18:01 21° 67° (ENE) 02:21:43 145.822/145.860
AAUSAT CUBESAT 2 04 Sep 02:17:45 02:20:19 16° 68° (ENE) 02:23:01 437.432
CUBESAT XI-V 04 Sep 02:20:06 02:23:43 22° 292° (WNW) 02:27:13 437.345
O/OREOS (USA 219) 04 Sep 02:40:50 02:41:37 10° 310° (NW) 02:42:09 437.305
Cosmos 2491 04 Sep 02:44:42 02:53:29 83° 265° (W) 03:02:17 435.465 / 435.565
YUBILEINY 04 Sep 02:49:14 02:57:33 51° 90° (E) 03:06:01 435.215
CUTE 1.7 + AOD 2 04 Sep 02:57:25 03:01:42 89° 255° (WSW) 03:06:00 437.475
PRISM 04 Sep 02:58:57 03:02:51 42° 287° (WNW) 03:06:45 437.425
ZACube-1 04 Sep 03:06:30 03:09:33 18° 67° (ENE) 03:12:47 437.345
RS-15 04 Sep 03:09:59 03:17:19 18° 3° (N) 03:24:55 29.354- 29.394
FUNcube-1 04 Sep 03:10:14 03:13:24 19° 68° (ENE) 03:16:45 145.935
CANX-2 04 Sep 03:12:05 03:16:17 53° 261° (W) 03:20:29 2200.000
CUBEBUG 2 04 Sep 03:19:06 03:23:28 42° 72° (ENE) 03:27:58 437.445
UWE-3 04 Sep 03:19:31 03:23:37 33° 71° (ENE) 03:27:50 435.000/436.395/437.385
BRITE-PL 04 Sep 03:21:45 03:23:49 13° 274° (W) 03:25:40 437.365/2234.400
STRAND 1 04 Sep 03:26:38 03:30:38 23° 294° (WNW) 03:34:30 437.568
HUMSAT D 04 Sep 03:26:50 03:27:47 11° 65° (ENE) 03:28:59 437.325/437.525
SEEDS 04 Sep 03:27:46 03:31:53 49° 261° (W) 03:36:01 437.485
DOVE 4 04 Sep 03:29:11 03:33:20 30° 266° (W) 03:37:39 437.250
GOMX 1 04 Sep 03:32:51 03:35:59 17° 271° (W) 03:39:03 467.674
HO-68 04 Sep 03:33:00 03:39:52 47° 261° (W) 03:46:44 435.675
COMPASS 1 04 Sep 03:44:22 03:48:21 40° 262° (W) 03:52:19 437.405
CINEMA 3 04 Sep 03:50:25 03:54:54 42° 263° (W) 03:59:34 145.822/145.860
Oscar 11 04 Sep 03:50:52 03:55:13 83° 75° (ENE) 03:59:35 145.826/435.025
DX 1 04 Sep 03:51:31 03:53:06 12° 64° (ENE) 03:54:54 434.975-435.025
AAUSAT CUBESAT 2 04 Sep 03:51:41 03:55:38 39° 262° (W) 03:59:34 437.432
DELFI C3 04 Sep 03:52:19 03:56:15 53° 75° (ENE) 04:00:12 145.870
UKube-1 04 Sep 03:58:35 04:00:27 13° 65° (ENE) 04:02:30 .
50 SAT 04 Sep 04:10:11 04:11:47 12° 67° (ENE) 04:13:33 437.505
ESTCUBE 1 04 Sep 04:25:20 04:27:28 14° 65° (ENE) 04:29:48 437.505/2401.250
AISAT 04 Sep 04:25:24 04:28:24 19° 67° (ENE) 04:31:33 437.250
Cosmos 2504 04 Sep 04:33:55 04:40:48 32° 85° (E) 04:48:12 435.465 / 435.565
ZACube-1 04 Sep 04:41:15 04:45:36 43° 262° (W) 04:49:59 437.345
BEESAT 3 04 Sep 04:43:09 04:46:23 23° 48° (NE) 04:49:38 437.485
Cosmos 2491 04 Sep 04:44:36 04:49:11 15° 281° (WNW) 04:53:09 435.465 / 435.565
FUNcube-1 04 Sep 04:45:09 04:49:27 40° 263° (W) 04:53:47 145.935
UNISAT 6 04 Sep 04:45:55 04:49:06 19° 92° (E) 04:52:20 437.425
YUBILEINY 04 Sep 04:46:52 04:54:44 34° 290° (WNW) 05:02:28 435.215
VELOX 1 04 Sep 04:51:34 04:55:29 33° 71° (ENE) 04:59:29 145.980
UWE-3 04 Sep 04:56:26 05:00:12 24° 267° (W) 05:03:54 435.000/436.395/437.385
CUBEBUG 2 04 Sep 04:56:59 05:00:22 19° 269° (W) 05:03:39 437.445
HUMSAT D 04 Sep 04:58:41 05:02:59 70° 259° (W) 05:07:19 437.325/437.525
BEESAT 2 04 Sep 05:00:06 05:03:31 26° 49° (NE) 05:06:56 435.950
TIGRISAT 04 Sep 05:12:23 05:16:32 36° 96° (E) 05:20:37 435.000
DUCHIFAT 1 04 Sep 05:15:59 05:17:46 13° 90° (E) 05:19:46 145.980
POLYITAN 1 04 Sep 05:17:00 05:19:13 14° 90° (E) 05:21:38 437.675
POPSAT HIP 1 04 Sep 05:18:13 05:20:27 14° 90° (E) 05:22:52 437.405
DX 1 04 Sep 05:24:35 05:28:53 62° 259° (W) 05:33:12 434.975-435.025
RS-15 04 Sep 05:24:36 05:34:51 34° 36° (NE) 05:45:39 29.354- 29.394
DELFI C3 04 Sep 05:30:31 05:31:42 11° 271° (W) 05:32:37 145.870
ANTELSAT 04 Sep 05:30:41 05:35:11 60° 101° (E) 05:39:32 437.575/2403.000
UKube-1 04 Sep 05:31:54 05:36:09 57° 259° (W) 05:40:24 .
NANOSAT C BR1 04 Sep 05:33:34 05:36:48 21° 93° (E) 05:40:07 145.865
SPROUT 04 Sep 05:34:11 05:37:02 18° 68° (ENE) 05:40:02 437.525
QB50P2 04 Sep 05:35:08 05:38:33 23° 94° (E) 05:42:01 145.880/145.840
50 SAT 04 Sep 05:42:04 05:45:55 48° 261° (W) 05:49:45 437.505
QB50P1 04 Sep 05:48:15 05:52:05 31° 96° (E) 05:55:56 145.935-145.965
CUBEBUG 1 04 Sep 05:50:19 05:54:38 88° 250° (WSW) 05:59:00 437.445
CUSAT 1 04 Sep 05:55:05 05:59:03 53° 93° (E) 06:04:22 437.405
AIST 2 04 Sep 05:59:19 06:02:38 23° 48° (NE) 06:05:59 435.215
ESTCUBE 1 04 Sep 05:59:29 06:03:54 57° 260° (W) 06:08:20 437.505/2401.250
AISAT 04 Sep 06:00:34 06:04:42 39° 262° (W) 06:08:52 437.250
PCSat 04 Sep 06:07:58 06:09:43 12° 104° (ESE) 06:11:50 145.827
SO-50 04 Sep 06:12:32 06:16:54 38° 115° (ESE) 06:21:29 436.795
AUBIESAT-1 04 Sep 06:17:06 06:20:55 82° 289° (WNW) 06:24:26 437.475
BEESAT 3 04 Sep 06:20:46 06:24:21 31° 246° (WSW) 06:27:50 437.485
UNISAT 6 04 Sep 06:21:51 06:26:03 37° 289° (WNW) 06:30:06 437.425
TISAT 1 04 Sep 06:23:39 06:27:27 35° 72° (ENE) 06:31:20 437.305
Cosmos 2504 04 Sep 06:24:41 06:32:41 53° 284° (WNW) 06:41:01 435.465 / 435.565
M-CUBED/EXP-1 PRIME 04 Sep 06:25:53 06:29:40 51° 291° (WNW) 06:33:06 437.505
VELOX 1 04 Sep 06:28:46 06:32:08 21° 267° (W) 06:35:24 145.980
BEESAT 2 04 Sep 06:38:03 06:41:31 27° 246° (WSW) 06:44:54 435.950
BUGSAT 1 04 Sep 06:42:09 06:46:27 80° 102° (ESE) 06:50:43 437.445
ITUPSAT 1 04 Sep 06:43:42 06:44:47 11° 62° (ENE) 06:46:09 437.325
DANDE 04 Sep 06:48:15 06:51:52 66° 282° (WNW) 06:56:48 436.750
TIGRISAT 04 Sep 06:49:39 06:53:03 21° 293° (WNW) 06:56:17 435.000
DUCHIFAT 1 04 Sep 06:49:45 06:53:56 51° 286° (WNW) 06:58:04 145.980
POLYITAN 1 04 Sep 06:51:17 06:55:25 46° 287° (WNW) 06:59:31 437.675
POPSAT HIP 1 04 Sep 06:52:29 06:56:37 46° 287° (WNW) 07:00:42 437.405
SPROUT 04 Sep 07:08:50 07:12:51 38° 263° (W) 07:16:53 437.525
NANOSAT C BR1 04 Sep 07:08:53 07:12:41 31° 289° (WNW) 07:16:24 145.865
ANTELSAT 04 Sep 07:09:17 07:11:27 13° 296° (WNW) 07:13:24 437.575/2403.000
QB50P2 04 Sep 07:10:43 07:14:26 28° 290° (WNW) 07:18:04 145.880/145.840
BEESAT 04 Sep 07:11:55 07:15:29 22° 67° (ENE) 07:19:11 436.000
QB50P1 04 Sep 07:24:28 07:27:46 21° 291° (WNW) 07:30:57 145.935-145.965
VERMONT LUNAR 04 Sep 07:31:23 07:33:05 14° 149° (SSE) 07:34:51 437.305
RS-15 04 Sep 07:36:56 07:48:53 84° 241° (WSW) 08:01:09 29.354- 29.394
SWISSCUBE 04 Sep 07:37:22 07:41:50 43° 72° (ENE) 07:46:21 437.505
AIST 2 04 Sep 07:37:30 07:41:17 34° 245° (WSW) 07:44:59 435.215
GONETS M04 04 Sep 07:39:32 07:45:41 23° 83° (E) 07:52:14
CUSAT 1 04 Sep 07:39:48 07:42:30 15° 302° (WNW) 07:45:22 437.405
PCSat 04 Sep 07:47:06 07:52:30 83° 296° (WNW) 07:57:58 145.827
SO-50 04 Sep 07:53:26 07:57:35 27° 313° (NW) 08:01:47 436.795
TISAT 1 04 Sep 08:00:23 08:03:21 18° 268° (W) 08:06:13 437.305
ITAMSAT 1 04 Sep 08:16:07 08:16:43 10° 87° (E) 08:17:42 435.822/435.867
Gurwin Techsat 1B 04 Sep 08:16:26 08:19:11 15° 89° (E) 08:22:14 435.225
ITUPSAT 1 04 Sep 08:17:18 08:22:05 82° 259° (WSW) 08:26:53 437.325
STARS 04 Sep 08:37:25 08:39:56 16° 66° (ENE) 08:42:38 437.465
Oscar 19 04 Sep 08:45:11 08:50:26 88° 285° (WNW) 08:55:37 437.125/150
BEESAT 04 Sep 08:48:41 08:53:08 38° 263° (W) 08:57:33 436.000
JAS-2 04 Sep 08:54:50 08:59:16 19° 86° (E) 09:03:37 435.910
KKS-1 04 Sep 09:02:57 09:07:13 48° 73° (ENE) 09:11:34 437.445
VERMONT LUNAR 04 Sep 09:06:11 09:09:09 63° 162° (SSE) 09:12:07 437.305
SWISSCUBE 04 Sep 09:16:31 09:19:55 19° 268° (W) 09:23:10 437.505
PHONESAT 2.4 04 Sep 09:21:46 09:22:25 10° 145° (SE) 09:23:13 2401.200-2431.200
O/OREOS (USA 219) 04 Sep 09:30:03 09:32:39 15° 53° (NE) 09:35:26 437.305
GONETS M04 04 Sep 09:33:09 09:41:48 70° 280° (W) 09:50:32
PCSat 04 Sep 09:33:55 09:36:52 14° 319° (NW) 09:39:36 145.827
MOZHAYETS 4 04 Sep 09:41:59 09:45:06 19° 67° (ENE) 09:48:21
ITAMSAT 1 04 Sep 09:51:46 09:56:59 84° 286° (WNW) 10:02:11 435.822/435.867
RS-15 04 Sep 09:51:52 10:00:01 20° 258° (WSW) 10:07:27 29.354- 29.394
Cosmos 2499 04 Sep 09:54:01 10:01:59 48° 89° (E) 10:10:22 435.465 / 435.565
Gurwin Techsat 1B 04 Sep 09:54:27 09:59:44 65° 286° (WNW) 10:04:58 435.225
AO-7 04 Sep 10:06:43 10:13:32 29° 94° (E) 10:20:34 29.400- 29.500
HORYU 2 04 Sep 10:08:17 10:10:59 16° 91° (E) 10:13:52 437.375
STARS 04 Sep 10:11:44 10:16:01 48° 261° (W) 10:20:20 437.465
Oscar 19 04 Sep 10:27:34 10:29:05 11° 299° (WNW) 10:30:18 437.125/150
JAS-2 04 Sep 10:38:23 10:45:09 63° 288° (WNW) 10:51:04 435.910
KKS-1 04 Sep 10:41:36 10:44:11 15° 270° (W) 10:46:34 437.445
VERMONT LUNAR 04 Sep 10:42:36 10:45:35 65° 358° (N) 10:48:33 437.305
PHONESAT 2.4 04 Sep 10:56:31 10:59:50 46° 158° (SSE) 11:03:07 2401.200-2431.200
O/OREOS (USA 219) 04 Sep 11:08:01 11:12:33 57° 252° (WSW) 11:17:02 437.305
MOZHAYETS 4 04 Sep 11:17:40 11:22:03 42° 262° (W) 11:26:24
ITAMSAT 1 04 Sep 11:34:42 11:35:47 10° 300° (WNW) 11:36:33 435.822/435.867
GONETS M04 04 Sep 11:36:51 11:40:44 13° 304° (NW) 11:43:58
HORYU 2 04 Sep 11:43:39 11:47:53 43° 288° (WNW) 11:52:03 437.375
CUBESAT XI-V 04 Sep 11:44:44 11:48:43 31° 71° (ENE) 11:52:48 437.345
Cosmos 2499 04 Sep 11:47:29 11:55:21 38° 289° (WNW) 12:03:23 435.465 / 435.565
AO-7 04 Sep 11:58:43 12:06:51 60° 293° (WNW) 12:14:54 29.400- 29.500
Cubesat XI-IV 04 Sep 12:02:02 12:02:32 10° 87° (E) 12:03:27 437.490
VERMONT LUNAR 04 Sep 12:19:04 12:22:02 74° 195° (SSW) 12:25:00 437.305
JAS-2 04 Sep 12:27:28 12:28:48 10° 307° (NW) 12:29:41 435.910
PHONESAT 2.4 04 Sep 12:34:14 12:37:39 73° 354° (N) 12:41:04 2401.200-2431.200
CUTE-I 04 Sep 12:42:32 12:47:01 28° 95° (E) 12:51:37 437.470
YUBILEINY 04 Sep 13:01:22 13:07:56 24° 65° (ENE) 13:14:49 435.215
STRAND 1 04 Sep 13:01:37 13:06:33 54° 73° (ENE) 13:11:32 437.568
CUBESAT XI-V 04 Sep 13:22:27 13:26:12 24° 266° (W) 13:29:53 437.345
Cubesat XI-IV 04 Sep 13:38:06 13:43:27 87° 289° (WNW) 13:48:48 437.490
BRITE-PL 04 Sep 13:45:54 13:50:24 25° 92° (E) 13:55:05 437.365/2234.400
PRISM 04 Sep 13:47:25 13:51:29 69° 258° (WSW) 13:55:34 437.425
Cosmos 2491 04 Sep 13:50:28 13:56:38 23° 83° (E) 14:03:12 435.465 / 435.565
AO-7 04 Sep 13:54:35 13:58:08 13° 312° (NW) 14:01:13 29.400- 29.500
VERMONT LUNAR 04 Sep 13:56:04 13:58:08 17° 210° (SSW) 14:00:10 437.305
GOMX 1 04 Sep 13:56:36 14:00:12 18° 89° (E) 14:04:00 467.674
ISS 04 Sep 14:01:42 14:04:58 89° 143° (SE) 14:08:14 145.825
PHONESAT 2.4 04 Sep 14:12:13 14:15:38 87° 9° (N) 14:19:02 2401.200-2431.200
CUTE-I 04 Sep 14:22:21 14:27:10 35° 291° (WNW) 14:31:55 437.470
AIST 1 04 Sep 14:23:28 14:27:41 69° 279° (W) 14:31:57
STRAND 1 04 Sep 14:42:52 14:46:10 17° 269° (W) 14:49:15 437.568
CUTE 1.7 + AOD 2 04 Sep 14:44:49 14:47:27 17° 91° (E) 14:50:15 437.475
SO-50 04 Sep 14:45:02 14:49:19 29° 48° (NE) 14:53:35 436.795
CUSAT 1 04 Sep 14:53:28 14:53:45 10° 55° (NE) 14:54:42 437.405
PCSat 04 Sep 14:55:24 14:56:49 11° 38° (NE) 14:58:29 145.827
YUBILEINY 04 Sep 14:56:58 15:05:46 73° 266° (W) 15:14:29 435.215
CANX-2 04 Sep 14:58:43 15:02:17 27° 95° (E) 15:05:54 2200.000
HO-68 04 Sep 15:01:41 15:08:12 37° 97° (E) 15:14:47 435.675
SEEDS 04 Sep 15:13:18 15:16:53 27° 95° (E) 15:20:29 437.485
Cubesat XI-IV 04 Sep 15:21:06 15:22:51 11° 300° (WNW) 15:24:18 437.490
BRITE-PL 04 Sep 15:23:44 15:29:04 45° 288° (WNW) 15:34:25 437.365/2234.400
DOVE 4 04 Sep 15:28:19 15:33:42 82° 104° (ESE) 15:38:54 437.250
COMPASS 1 04 Sep 15:28:41 15:32:24 32° 96° (E) 15:36:08 437.405
AUBIESAT-1 04 Sep 15:30:52 15:32:40 12° 60° (ENE) 15:34:39 437.475
GOMX 1 04 Sep 15:33:18 15:38:43 58° 286° (WNW) 15:44:03 467.674
AAUSAT CUBESAT 2 04 Sep 15:35:29 15:39:11 32° 96° (E) 15:42:54 437.432
M-CUBED/EXP-1 PRIME 04 Sep 15:38:35 15:41:40 18° 62° (ENE) 15:44:50 437.505
ISS 04 Sep 15:39:32 15:41:46 17° 339° (NNW) 15:43:59 145.825
Oscar 11 04 Sep 15:40:30 15:43:06 16° 91° (E) 15:45:52 145.826/435.025
Cosmos 2491 04 Sep 15:44:07 15:52:48 70° 280° (W) 16:01:30 435.465 / 435.565
UNISAT 6 04 Sep 15:44:08 15:47:06 17° 66° (ENE) 15:50:14 437.425
DANDE 04 Sep 15:45:03 15:50:13 19° 63° (ENE) 15:56:06 436.750
CINEMA 3 04 Sep 15:46:14 15:51:06 54° 99° (E) 15:55:48 145.822/145.860
PHONESAT 2.4 04 Sep 15:50:18 15:53:19 29° 207° (SSW) 15:56:19 2401.200-2431.200
TIGRISAT 04 Sep 16:09:52 16:13:54 30° 70° (ENE) 16:18:02 435.000
POLYITAN 1 04 Sep 16:11:03 16:11:32 10° 64° (ENE) 16:12:17 437.675
POPSAT HIP 1 04 Sep 16:12:11 16:12:33 10° 64° (ENE) 16:13:12 437.405
Cosmos 2504 04 Sep 16:12:41 16:20:49 51° 76° (ENE) 16:28:29 435.465 / 435.565
CUTE 1.7 + AOD 2 04 Sep 16:19:38 16:23:33 37° 288° (WNW) 16:27:25 437.475
SO-50 04 Sep 16:25:26 16:29:56 36° 246° (WSW) 16:34:17 436.795
NANOSAT C BR1 04 Sep 16:25:59 16:28:19 15° 66° (ENE) 16:30:48 145.865
QB50P2 04 Sep 16:27:48 16:30:25 17° 67° (ENE) 16:33:11 145.880/145.840
ANTELSAT 04 Sep 16:28:06 16:32:36 48° 73° (ENE) 16:37:09 437.575/2403.000
CUSAT 1 04 Sep 16:30:28 16:38:16 52° 75° (ENE) 16:46:11 437.405
ZACube-1 04 Sep 16:31:02 16:35:12 39° 97° (E) 16:39:17 437.345
FUNcube-1 04 Sep 16:34:34 16:38:47 41° 98° (E) 16:42:53 145.935
CANX-2 04 Sep 16:34:43 16:38:07 23° 290° (WNW) 16:41:26 2200.000
PCSat 04 Sep 16:36:04 16:41:27 62° 59° (ENE) 16:46:49 145.827
QB50P1 04 Sep 16:40:21 16:43:34 22° 69° (ENE) 16:46:53 145.935-145.965
HUMSAT D 04 Sep 16:44:36 16:47:40 20° 93° (E) 16:50:48 437.325/437.525
UWE-3 04 Sep 16:46:27 16:51:02 80° 102° (ESE) 16:55:26 435.000/436.395/437.385
CUBEBUG 2 04 Sep 16:47:40 16:52:20 77° 284° (WNW) 16:56:49 437.445
SEEDS 04 Sep 16:49:15 16:52:33 22° 290° (WNW) 16:55:46 437.485
HO-68 04 Sep 16:49:18 16:55:59 42° 294° (WNW) 17:02:35 435.675
YUBILEINY 04 Sep 16:57:52 17:01:13 12° 283° (WNW) 17:03:50 435.215
AUBIESAT-1 04 Sep 17:02:06 17:06:51 79° 254° (WSW) 17:11:29 437.475
COMPASS 1 04 Sep 17:04:51 17:07:53 19° 291° (WNW) 17:10:48 437.405
DELFI C3 04 Sep 17:06:57 17:10:57 76° 284° (WNW) 17:14:55 145.870
DOVE 4 04 Sep 17:08:12 17:10:45 13° 297° (WNW) 17:13:01 437.250
M-CUBED/EXP-1 PRIME 04 Sep 17:11:21 17:16:04 54° 255° (WSW) 17:20:41 437.505
AAUSAT CUBESAT 2 04 Sep 17:11:35 17:14:35 19° 291° (WNW) 17:17:28 437.432
DX 1 04 Sep 17:14:24 17:17:55 24° 95° (E) 17:21:30 434.975-435.025
Oscar 11 04 Sep 17:15:27 17:19:30 40° 287° (WNW) 17:23:31 145.826/435.025
50 SAT 04 Sep 17:18:49 17:21:30 18° 93° (E) 17:24:15 437.505
UNISAT 6 04 Sep 17:18:57 17:23:31 49° 261° (W) 17:28:06 437.425
UKube-1 04 Sep 17:20:46 17:24:18 25° 95° (E) 17:27:55 .
CINEMA 3 04 Sep 17:24:36 17:27:50 17° 295° (WNW) 17:30:51 145.822/145.860
DANDE 04 Sep 17:26:21 17:34:23 86° 81° (E) 17:42:58 436.750
BUGSAT 1 04 Sep 17:31:02 17:34:55 45° 74° (ENE) 17:38:55 437.445
DUCHIFAT 1 04 Sep 17:40:28 17:44:42 82° 256° (WSW) 17:49:00 145.980
CUBEBUG 1 04 Sep 17:41:02 17:44:05 19° 92° (E) 17:47:16 437.445
POLYITAN 1 04 Sep 17:42:38 17:46:53 72° 258° (WSW) 17:51:12 437.675
POPSAT HIP 1 04 Sep 17:43:38 17:47:53 72° 258° (WSW) 17:52:10 437.405
TIGRISAT 04 Sep 17:46:38 17:50:37 27° 266° (W) 17:54:34 435.000
Cosmos 2491 04 Sep 17:47:56 17:51:44 13° 304° (WNW) 17:54:54 435.465 / 435.565
AISAT 04 Sep 17:51:52 17:56:08 41° 98° (E) 18:00:23 437.250
ESTCUBE 1 04 Sep 17:53:21 17:57:20 31° 96° (E) 18:01:22 437.505/2401.250
NANOSAT C BR1 04 Sep 17:59:41 18:03:47 46° 261° (W) 18:07:54 145.865
QB50P2 04 Sep 18:01:56 18:05:59 42° 262° (W) 18:10:04 145.880/145.840
Cosmos 2504 04 Sep 18:05:30 18:12:41 32° 275° (W) 18:19:16 435.465 / 435.565
ANTELSAT 04 Sep 18:06:35 18:09:40 17° 270° (W) 18:12:33 437.575/2403.000
ZACube-1 04 Sep 18:08:07 18:11:16 19° 293° (WNW) 18:14:13 437.345
FUNcube-1 04 Sep 18:11:46 18:14:47 18° 293° (WNW) 18:17:36 145.935
CUSAT 1 04 Sep 18:13:25 18:20:37 35° 271° (W) 18:27:39 437.405
QB50P1 04 Sep 18:15:29 18:19:16 30° 264° (W) 18:23:03 145.935-145.965
VELOX 1 04 Sep 18:18:43 18:23:14 80° 102° (ESE) 18:27:42 145.980
HUMSAT D 04 Sep 18:19:43 18:23:28 31° 289° (WNW) 18:27:07 437.325/437.525
PCSat 04 Sep 18:20:56 18:24:25 17° 254° (WSW) 18:27:39 145.827
Oscar 19 04 Sep 18:24:30 18:27:15 15° 63° (ENE) 18:30:13 437.125/150
UWE-3 04 Sep 18:26:26 18:26:54 10° 297° (WNW) 18:27:07 435.000/436.395/437.385
JUGNU 04 Sep 18:38:36 18:39:15 10° 175° (S) 18:39:56 437.505
